Location: Brachbach
(49.1847°N, 9.7240°E)
Time: 23:01:05
(UTC+00:00)

RS-15 - Visible Passes

Search period start: 13 March 2026 00:00
Search period end: 23 March 2026 00:00
Orbit: 1894 x 2151 km, 64.8° (Epoch: 13 March)

Date Brightness Start Highest point End Pass type
(mag) Time Alt. Az. Time Alt. Az. Time Alt. Az.
13 Mar 8.9 02:00:53 10° NW 02:11:36 45° NNE 02:22:47 10° E visible
13 Mar 8.1 04:13:53 10° NW 04:25:25 87° SW 04:37:28 10° SE visible
13 Mar 8.2 18:43:26 10° S 18:53:04 38° ESE 19:02:52 10° NE visible
13 Mar 8.0 20:53:38 10° SW 21:04:34 75° NW 21:15:56 10° NE visible
13 Mar 8.9 23:08:51 10° W 23:19:02 39° NNW 23:29:37 10° NE visible
14 Mar 9.0 01:24:28 10° NW 01:34:57 41° NNE 01:45:52 10° E visible
14 Mar 8.2 03:37:47 10° NW 03:49:17 80° NE 04:01:20 10° SE visible
14 Mar 8.5 18:08:43 10° SSE 18:17:30 30° ESE 18:26:24 10° NE visible
14 Mar 7.8 20:17:30 10° SW 20:28:26 88° NW 20:39:47 10° NE visible
14 Mar 8.8 22:32:02 10° W 22:42:21 43° NNW 22:53:07 10° NE visible
15 Mar 9.1 00:47:58 10° NW 00:58:13 38° NNE 01:08:55 10° ENE visible
15 Mar 8.3 03:01:38 10° NW 03:13:03 68° NE 03:24:58 10° SE visible
15 Mar 7.8 19:41:34 10° SSW 19:52:25 77° ESE 20:03:37 10° NE visible
15 Mar 8.7 21:55:16 10° W 22:05:45 48° NNW 22:16:43 10° NE visible
16 Mar 9.1 00:11:20 10° WNW 00:21:28 37° N 00:32:00 10° ENE visible
16 Mar 8.5 02:25:28 10° NW 02:36:42 59° NE 02:48:27 10° ESE visible
16 Mar 8.1 04:38:12 10° NW 04:49:21 59° WSW 05:01:00 10° SSE visible
16 Mar 7.9 19:05:52 10° SSW 19:16:30 63° ESE 19:27:27 10° NE visible
16 Mar 8.5 21:18:35 10° WSW 21:29:16 54° NW 21:40:24 10° NE visible
16 Mar 9.1 23:34:37 10° WNW 23:44:40 36° N 23:55:08 10° ENE visible
17 Mar 8.7 01:49:14 10° NW 02:00:15 51° NNE 02:11:46 10° ESE visible
17 Mar 8.0 04:02:03 10° NW 04:13:27 72° WSW 04:25:22 10° SSE visible
17 Mar 8.0 18:30:26 10° S 18:40:42 51° ESE 18:51:15 10° NE visible
17 Mar 8.3 20:42:04 10° WSW 20:52:53 63° NW 21:04:09 10° NE visible
17 Mar 9.1 22:57:49 10° WNW 23:07:53 37° N 23:18:22 10° ENE visible
18 Mar 8.8 01:12:56 10° NW 01:23:43 46° NNE 01:34:56 10° E visible
18 Mar 8.0 03:25:55 10° NW 03:37:26 86° SW 03:49:29 10° SSE visible
18 Mar 8.3 17:55:17 10° S 18:05:01 40° ESE 18:14:57 10° NE visible
18 Mar 8.1 20:05:41 10° SW 20:16:37 74° NW 20:27:58 10° NE visible
18 Mar 9.0 22:20:58 10° W 22:31:08 39° NNW 22:41:44 10° NE visible
19 Mar 9.0 00:36:32 10° NW 00:47:04 41° NNE 00:58:02 10° E visible
19 Mar 8.1 02:49:48 10° NW 03:01:20 81° NE 03:13:23 10° SE visible
19 Mar 7.9 19:29:31 10° SW 19:40:28 87° NW 19:51:49 10° NE visible
19 Mar 8.9 21:44:09 10° W 21:54:27 42° NNW 22:05:12 10° NE visible
20 Mar 9.0 00:00:03 10° NW 00:10:21 39° NNE 00:21:05 10° E visible
20 Mar 8.3 02:13:39 10° NW 02:25:06 70° NE 02:37:04 10° SE visible
20 Mar 8.3 04:26:27 10° NW 04:37:07 46° WSW 04:48:14 10° S visible
20 Mar 7.9 18:53:33 10° SSW 19:04:25 79° SE 19:15:40 10° NE visible
20 Mar 8.7 21:07:22 10° W 21:17:51 47° NNW 21:28:46 10° NE visible
20 Mar 9.1 23:23:26 10° WNW 23:33:35 37° N 23:44:09 10° ENE visible
21 Mar 8.4 01:37:30 10° NW 01:48:47 60° NE 02:00:34 10° ESE visible
21 Mar 8.1 03:50:14 10° NW 04:01:20 57° WSW 04:12:56 10° S visible
21 Mar 7.9 18:17:49 10° SSW 18:28:30 65° ESE 18:39:30 10° NE visible
21 Mar 8.6 20:30:41 10° WSW 20:41:20 53° NNW 20:52:27 10° NE visible
21 Mar 9.1 22:46:43 10° WNW 22:56:48 36° N 23:07:17 10° ENE visible
22 Mar 8.6 01:01:17 10° NW 01:12:21 52° NNE 01:23:53 10° ESE visible
22 Mar 8.0 03:14:04 10° NW 03:25:27 70° WSW 03:37:21 10° SSE visible
22 Mar 8.4 19:54:07 10° WSW 20:04:56 62° NW 20:16:13 10° NE visible
22 Mar 9.1 22:09:56 10° WNW 22:20:01 37° N 22:30:30 10° ENE visible
